Lexington Weather

Lexington, Massachusetts, USA

27°F
1/23/2020 9:13am 
  • Lexington Conditions: Partly cloudy
  • Temperature: 27.0°F / -2.8°CWarmer 3.6°F than last hour.
  • Dew Point: 19.2°FIncreased 1.4°Fsince last hour.
  • Relative Humidity: 72%Decreased 7.0% since last hour.
  • Wind: Calm, 10-min avg: Calm, gust: 6 mph
  • Barometer: 30.34 in Steady
  • Visibility: 10 miles
  • Snow Today: 0.0 in
  •   

Regional Weather Roundup
for Boston / Norton, MA

        
000
ASUS41 KBOX 210410
RWRBOX

REGIONAL WEATHER ROUNDUP
NATIONAL WEATHER SERVICE BOSTON/NORTON MA
1100 PM EST MON JAN 20 2020

NOTE:  "FAIR" INDICATES FEW OR NO CLOUDS BELOW 12,000 FEET WITH NO 
SIGNIFICANT WEATHER AND/OR OBSTRUCTIONS TO VISIBILITY.

MAZALL-210500-
EASTERN MASSACHUSETTS
  
CITY           SKY/WX    TMP DP  RH WIND       PRES   REMARKS
BOSTON         FAIR      23  -1  35 W8        30.31R WCI  14          
BEVERLY        FAIR      18  -1  43 NW8       30.29R WCI   8          
LAWRENCE       FAIR      17  -1  45 W6        30.31R WCI   9          
BEDFORD        FAIR      16  -4  41 W5        30.30R WCI   9          
BLUE HILL      NOT AVBL                                               
NORWOOD        FAIR      13   1  59 CALM      30.31R                  
MARSHFIELD     FAIR      21   0  39 W3        30.30R                  
PLYMOUTH       FAIR      19   0  43 W6        30.30R WCI  11          
TAUNTON        FAIR      16   0  49 W3        30.31R                  
NEW BEDFORD    FAIR      20  -2  38 VRB6      30.31R WCI  12          
$$

MAZALL-210500-
CAPE COD AND THE ISLANDS
  
CITY           SKY/WX    TMP DP  RH WIND       PRES   REMARKS
FALMOUTH       CLEAR     18   0  45 NW6       30.30R WCI   9          
HYANNIS        FAIR      22   0  38 W5        30.27R WCI  16          
CHATHAM        FAIR      25   9  50 VRB3      30.28R                  
PROVINCETOWN   FAIR      26  10  50 NW18G26   30.29R WCI  13          
NANTUCKET      FAIR      26   7  44 NW12      30.28S WCI  16          
MARTHAS VNYRD  FAIR      23   2  40 NW14      30.29S WCI  11          
$$
 
MAZALL-210500-
CENTRAL AND WESTERN MASSACHUSETTS
  
CITY           SKY/WX    TMP DP  RH WIND       PRES   REMARKS
WORCESTER      FAIR      13  -2  51 NW14      30.23S WCI  -2          
FITCHBURG      FAIR      16  -3  43 CALM      30.30R                  
ORANGE         FAIR      15  -2  46 VRB6      30.31R WCI   6          
SPRINGFIELD    CLEAR     16  -3  42 NW6       30.33R WCI   7          
WESTFIELD      FAIR      14  -2  49 N8        30.34R WCI   3          
NORTH ADAMS    FAIR       6  -2  69 W8        30.34S WCI  -7          
PITTSFIELD     FAIR      13   3  64 NW10G23   30.28S WCI   0          
$$
 
RIZALL-210500-
RHODE ISLAND
  
CITY           SKY/WX    TMP DP  RH WIND       PRES   REMARKS
PROVIDENCE     FAIR      19   1  45 NW6       30.33R WCI  11          
NEWPORT        FAIR      22   2  42 NW7       30.31R WCI  13          
BLOCK ISLAND   FAIR      22   6  50 NW9       30.33R WCI  12          
SMITHFIELD     FAIR      16   1  51 W6        30.29R WCI   7          
WESTERLY       FAIR      22   1  40 NW5       30.34R WCI  16          
$$
 
CTZALL-210500-
CONNECTICUT
  
CITY           SKY/WX    TMP DP  RH WIND       PRES   REMARKS
BRADLEY INTL   FAIR      15  -2  46 CALM      30.34F                  
HARTFORD       FAIR      18  -1  43 N6        30.36S WCI  10          
BRIDGEPORT     FAIR      21  -2  36 W5        30.38R WCI  15          
DANBURY        FAIR      17  -3  41 VRB3      30.35S                  
GROTON         FAIR      19   1  45 NW8       30.35R WCI   9          
NEW HAVEN      FAIR      21  -1  38 NW7       30.36R WCI  12          
CHESTER        NOT AVBL                                               
MERIDEN        FAIR      16   1  51 W6        30.36R WCI   7          
WILLIMANTIC    FAIR      17  -1  45 VRB3      30.35R                  
OXFORD         FAIR      16   2  54 N13G18    30.31S WCI   2          
$$

MEZ002-015-021-024-NHZ003-005-008-011-012-014-VTZ005-008-210500-
NORTHERN NEW ENGLAND
  
CITY           SKY/WX    TMP DP  RH WIND       PRES   REMARKS
PORTLAND ME    FAIR      12   0  58 SW6       30.28R WCI   3          
BANGOR ME      FAIR      10  -2  58 NW9       30.23S WCI  -3          
CONCORD NH     FAIR      14  -2  49 NW9       30.30R WCI   2          
MANCHESTER NH  FAIR      15  -2  46 NW7       30.28R WCI   5          
NASHUA NH      FAIR      15   2  56 NW8       30.31R WCI   4          
PORTSMOUTH NH  CLEAR     15  -4  41 NW6       30.25R WCI   6          
JAFFREY NH     FAIR       5  -2  72 CALM      30.25R                  
KEENE NH       FAIR       1  -1  91 CALM      30.33R                  
BURLINGTON VT  FAIR       3  -1  83 CALM      30.36R                  
MT. WASHINGTON CLEAR     -8 -15  71 NW67        N/A  WCI -45          
$$

NYZ052-076-210500-
EASTERN NEW YORK
  
CITY           SKY/WX    TMP DP  RH WIND       PRES   REMARKS
ALBANY         FAIR       9   1  70 CALM      30.40F                  
NEW YORK CITY  FAIR      24   3  40 NW16      30.39R WCI  11          
$$
 
ANZALL-210500-
MARINE OBSERVATIONS
  
STATION/POSITION TIME  TEMP    WIND        PRES    VSBY  WAVE
                       AIR SEA DIR/SP/G                  HT/PER
                 (UTC) (F)     (DEG/KT/KT) (MB)    (MI)  (FT/S)
BOSTON BUOY      0350   25 43  320/ 21/ 27 1025.0R         4/ 3
BUZZARDS BAY     0300   26     340/ 16/ 19 1026.6R
NANTUCKET SOUND  0340                        N/A           2/ 3
MASS BAY-STELLWA 0304   24 41  330/ 17/ 21 1023.4R  1 7/8  3/ 6
ISLE OF SHOALS   0300   21     300/ 12/ 15 1024.9R
S OF BLOCK IS    0400      45                N/A           4/ 4
$$

......................KEY.........................
  SKY/WX - SKY CONDITION/PRESENT WEATHER
  TMP    - TEMPERATURE IN FAHRENHEIT
  DWPT   - DEWPOINT IN FAHRENHEIT
  RH     - RELATIVE HUMIDITY IN PERCENT
  WIND   - DIRECTION AND SPEED IN MPH
  PRES   - MEAN SEA LEVEL PRESSURE IN INCHES OF HG
  WCI    - WIND CHILL INDEX
  VSB    - VISIBILITY IN MILES
  HX     - HEAT INDEX
  TC     - TEMPERATURE IN CELSIUS
  VRB    - VARIABLE WIND DIRECTION
  N/A    - NOT AVAILABLE
  
      

Other recent Regional Weather Roundups

Thu Jan 23, 9:00am

Thu Jan 23, 8:10am

Thu Jan 23, 8:00am

Thu Jan 23, 7:10am

Thu Jan 23, 7:01am

Thu Jan 23, 6:10am

Thu Jan 23, 6:00am

Thu Jan 23, 5:10am

Thu Jan 23, 5:00am

Thu Jan 23, 4:10am

Thu Jan 23, 4:01am

Thu Jan 23, 3:10am

Thu Jan 23, 3:00am

Thu Jan 23, 2:10am

Thu Jan 23, 2:00am

Thu Jan 23, 1:10am

Thu Jan 23, 1:00am

Thu Jan 23, 12:10am

Thu Jan 23, 12:00am

Wed Jan 22, 11:10pm

Wed Jan 22, 11:01pm

Wed Jan 22, 10:10pm

Wed Jan 22, 10:00pm

Wed Jan 22, 9:10pm

Wed Jan 22, 9:00pm

Wed Jan 22, 8:10pm

Wed Jan 22, 8:01pm

Wed Jan 22, 7:10pm

Wed Jan 22, 7:00pm

Wed Jan 22, 6:10pm

Wed Jan 22, 6:01pm

Wed Jan 22, 5:10pm

Wed Jan 22, 5:00pm

Wed Jan 22, 4:10pm

Wed Jan 22, 4:00pm

Wed Jan 22, 3:10pm

Wed Jan 22, 3:00pm

Wed Jan 22, 2:10pm

Wed Jan 22, 2:00pm

Wed Jan 22, 1:10pm

Wed Jan 22, 1:00pm

Wed Jan 22, 12:10pm

Wed Jan 22, 12:00pm

Wed Jan 22, 11:10am

Wed Jan 22, 11:00am

Wed Jan 22, 10:10am

Wed Jan 22, 10:01am

Wed Jan 22, 9:10am

Wed Jan 22, 9:00am

Wed Jan 22, 8:10am

Wed Jan 22, 8:00am

Wed Jan 22, 7:10am

Wed Jan 22, 7:00am

Wed Jan 22, 6:10am

Wed Jan 22, 6:00am

Wed Jan 22, 5:10am

Wed Jan 22, 5:00am

Wed Jan 22, 4:10am

Wed Jan 22, 4:00am

Wed Jan 22, 3:10am

Wed Jan 22, 3:01am

Wed Jan 22, 2:10am

Wed Jan 22, 2:00am

Wed Jan 22, 1:10am

Wed Jan 22, 1:00am

Wed Jan 22, 12:10am

Wed Jan 22, 12:00am

Tue Jan 21, 11:10pm

Tue Jan 21, 11:00pm

Tue Jan 21, 10:10pm

Tue Jan 21, 10:00pm

Tue Jan 21, 9:10pm

Tue Jan 21, 9:01pm

Tue Jan 21, 8:10pm

Tue Jan 21, 8:00pm

Tue Jan 21, 7:10pm

Tue Jan 21, 7:00pm

Tue Jan 21, 6:10pm

Tue Jan 21, 6:01pm

Tue Jan 21, 5:10pm

Tue Jan 21, 5:00pm

Tue Jan 21, 4:10pm

Tue Jan 21, 4:00pm

Tue Jan 21, 3:10pm

Tue Jan 21, 3:01pm

Tue Jan 21, 2:10pm

Tue Jan 21, 2:00pm

Tue Jan 21, 1:10pm

Tue Jan 21, 1:00pm

Tue Jan 21, 12:10pm

Tue Jan 21, 12:00pm

Tue Jan 21, 11:10am

Tue Jan 21, 11:00am

Tue Jan 21, 10:10am

Tue Jan 21, 10:00am

Tue Jan 21, 9:10am

Tue Jan 21, 9:00am

Tue Jan 21, 8:10am

Tue Jan 21, 8:00am

Tue Jan 21, 7:10am

Tue Jan 21, 7:00am

Tue Jan 21, 6:10am

Tue Jan 21, 6:00am

Tue Jan 21, 5:10am

Tue Jan 21, 5:00am

Tue Jan 21, 4:10am

Tue Jan 21, 4:00am

Tue Jan 21, 3:10am

Tue Jan 21, 3:00am

Tue Jan 21, 2:10am

Tue Jan 21, 2:01am

Tue Jan 21, 1:10am

Tue Jan 21, 1:00am

Tue Jan 21, 12:10am

Tue Jan 21, 12:00am

Mon Jan 20, 11:10pm

Mon Jan 20, 11:00pm

Mon Jan 20, 10:10pm

Mon Jan 20, 10:00pm

Mon Jan 20, 9:10pm

Mon Jan 20, 9:00pm

Mon Jan 20, 8:10pm

Mon Jan 20, 8:00pm

Mon Jan 20, 7:10pm

Mon Jan 20, 7:00pm

Mon Jan 20, 6:10pm

Mon Jan 20, 6:00pm

Mon Jan 20, 5:10pm

Mon Jan 20, 5:00pm

Mon Jan 20, 4:10pm

Mon Jan 20, 4:01pm

Mon Jan 20, 3:10pm

Mon Jan 20, 3:00pm

Mon Jan 20, 2:10pm

Mon Jan 20, 2:00pm

Mon Jan 20, 1:10pm

Mon Jan 20, 1:00pm

Mon Jan 20, 12:10pm

Mon Jan 20, 12:00pm

Mon Jan 20, 11:10am

Mon Jan 20, 11:00am

Mon Jan 20, 10:10am

Mon Jan 20, 10:00am

Meta data:

ID: 39dac91a-853b-4d61-a572-217f8475e78a
Link: https://api.weather.gov/products/39dac91a-853b-4d61-a572-217f8475e78a